Weather History for Pierre, SD

Change the Weather History Date:

Tuesday, February 4, 2014

  Actual Average Record
Temperature  
Mean Temperature 3 °F 22 °F  
Max Temperature 11 °F 32 °F 66 °F (2005)
Min Temperature -5 °F 11 °F -22 °F (1996)
Degree Days  
Heating Degree Days 62 43  
Month to date heating degree days 216 174  
Since 1 July heating degree days 4813 4534  
Cooling Degree Days 0 0  
Month to date cooling degree days 0 0  
Year to date cooling degree days 0 0  
Moisture  
Dew Point -1 °F    
Average Humidity 77    
Maximum Humidity 92    
Minimum Humidity 62    
Precipitation  
Precipitation 0.00 in 0.02 in 0.22 in (1986)
Month to date precipitation 0.08 0.06  
Year to date precipitation 0.22 0.48  
Snow  
Snow 0.00 in 0.10 in 2.50 in (1997)
Month to date snowfall 1.0 0.6  
Since 1 July snowfall 18.7 16.5  
Snow Depth 1.00 in    
Sea Level Pressure  
Sea Level Pressure 30.55 in    
Wind  
Wind Speed 9 mph (NNE)    
Max Wind Speed 22 mph    
Max Gust Speed 25 mph    
Visibility 5 miles    
Events Snow    
T = Trace of Precipitation, MM = Missing Value Source: NWS Daily Summary

Daily Weather History Graph

Daily Weather History Graph

Search for Another Location

Airport:

Trip Planner

Search our weather history database for the weather conditions in past years. The results will help you decide how hot, cold, wet, or windy it might be!

Date:

Astronomy

Feb. 04, 2014 Rise Set
Actual Time 7:55 AM CST 5:54 PM CST
Civil Twilight 7:25 AM CST 6:25 PM CST
Nautical Twilight 6:50 AM CST 7:00 PM CST
Astronomical Twilight 6:16 AM CST 7:34 PM CST
Moon 10:20 AM CST (2/4) No Moon Set
Length of Visible Light 11h 00m
Length of Day
9h 59m
Waxing Crescent, 29% of the Moon is Illuminated
Feb 4
Waxing Crescent
Feb 6
First Quarter
Feb 14
Full
Feb 22
Last Quarter
Mar 1
New

Hourly Weather History & Observations

Time (CST) Temp. Windchill Dew Point Humidity Pressure Visibility Wind Dir Wind Speed Gust Speed Precip Events Conditions
12:08 AM 10.4 °F -3.3 °F 8.6 °F 92% 30.32 in 2.5 mi NE 10.4 mph - 0.00 in Snow Light Snow
12:32 AM 10.4 °F -4.1 °F 6.8 °F 85% 30.32 in 2.0 mi NNE 11.5 mph - 0.00 in Snow Light Snow
12:43 AM 8.6 °F -10.0 °F 5.0 °F 85% 30.33 in 1.5 mi North 18.4 mph 23.0 mph 0.00 in Snow Light Snow
12:53 AM 8.1 °F -11.7 °F 3.0 °F 80% 30.44 in 2.5 mi NNE 20.7 mph - 0.00 in Snow Light Snow
1:45 AM 3.2 °F -15.3 °F -0.4 °F 85% 30.35 in 4.0 mi NNE 15.0 mph - 0.00 in Snow Light Snow
1:53 AM 3.9 °F -12.2 °F -0.9 °F 80% 30.46 in 5.0 mi NNE 11.5 mph - 0.00 in   Haze
2:53 AM -0.0 °F -18.0 °F -5.1 °F 79% 30.49 in 10.0 mi NE 12.7 mph - N/A   Mostly Cloudy
3:53 AM -2.0 °F -19.6 °F -8.0 °F 76% 30.51 in 10.0 mi NE 11.5 mph - N/A   Overcast
4:53 AM -2.9 °F -20.8 °F -9.9 °F 72% 30.51 in 10.0 mi NE 11.5 mph - N/A   Clear
5:53 AM -5.1 °F -21.5 °F -11.0 °F 76% 30.52 in 10.0 mi NE 9.2 mph - N/A   Clear
6:53 AM -2.9 °F - -9.9 °F 72% 30.56 in 10.0 mi Calm Calm - N/A   Overcast
7:53 AM -2.0 °F -13.9 °F -9.9 °F 69% 30.58 in 10.0 mi NNE 5.8 mph - N/A   Overcast
8:53 AM -0.0 °F -13.0 °F -9.0 °F 66% 30.59 in 10.0 mi NE 6.9 mph - N/A   Overcast
9:53 AM 1.0 °F -14.0 °F -7.1 °F 69% 30.60 in 10.0 mi NE 9.2 mph - N/A   Overcast
10:53 AM 3.0 °F -11.5 °F -7.1 °F 63% 30.59 in 10.0 mi NNE 9.2 mph - N/A   Overcast
11:53 AM 3.9 °F -11.3 °F -5.1 °F 66% 30.60 in 10.0 mi North 10.4 mph - N/A   Overcast
12:53 PM 5.0 °F -10.0 °F -4.0 °F 66% 30.58 in 10.0 mi North 10.4 mph - N/A   Overcast
1:53 PM 7.0 °F -7.5 °F -2.9 °F 64% 30.59 in 10.0 mi North 10.4 mph - N/A   Overcast
2:53 PM 6.1 °F -9.5 °F -2.0 °F 69% 30.61 in 10.0 mi North 11.5 mph - N/A   Overcast
3:53 PM 6.1 °F -8.7 °F -0.9 °F 73% 30.63 in 2.5 mi North 10.4 mph - 0.00 in Snow Light Snow
3:56 PM 6.8 °F -7.8 °F -0.4 °F 72% 30.50 in 1.8 mi North 10.4 mph - 0.00 in Snow Light Snow
4:53 PM 6.1 °F -7.8 °F -0.0 °F 76% 30.64 in 1.5 mi North 9.2 mph - 0.00 in Snow Light Snow
5:02 PM 6.8 °F -6.9 °F -0.4 °F 72% 30.50 in 2.0 mi North 9.2 mph - 0.00 in Snow Light Snow
5:26 PM 6.8 °F -6.9 °F -0.4 °F 72% 30.50 in 4.0 mi North 9.2 mph - 0.00 in Snow Light Snow
5:53 PM 6.1 °F -7.8 °F -0.0 °F 76% 30.64 in 7.0 mi North 9.2 mph - 0.00 in   Overcast
6:53 PM 6.1 °F -4.3 °F 1.0 °F 80% 30.64 in 5.0 mi North 5.8 mph - 0.00 in Snow Light Snow
7:22 PM 6.8 °F -4.8 °F 1.4 °F 79% 30.51 in 2.5 mi North 6.9 mph - 0.00 in Snow Light Snow
7:38 PM 6.8 °F -4.8 °F 1.4 °F 79% 30.52 in 2.0 mi North 6.9 mph - 0.00 in Snow Light Snow
7:53 PM 5.0 °F -6.9 °F 1.0 °F 84% 30.66 in 2.5 mi North 6.9 mph - 0.00 in Snow Light Snow
8:01 PM 5.0 °F -5.6 °F 1.4 °F 85% 30.52 in 3.0 mi North 5.8 mph - 0.00 in Snow Light Snow
8:18 PM 5.0 °F -5.6 °F 1.4 °F 85% 30.52 in 2.0 mi North 5.8 mph - 0.00 in Snow Light Snow
8:53 PM 5.0 °F -6.9 °F 1.0 °F 84% 30.66 in 2.5 mi North 6.9 mph - 0.00 in Snow Light Snow
9:02 PM 5.0 °F -6.9 °F 1.4 °F 85% 30.53 in 3.0 mi North 6.9 mph - 0.00 in Snow Light Snow
9:10 PM 5.0 °F -6.9 °F 1.4 °F 85% 30.53 in 2.5 mi NNE 6.9 mph - 0.00 in Snow Light Snow
9:29 PM 5.0 °F -5.6 °F 1.4 °F 85% 30.54 in 2.5 mi NNE 5.8 mph - 0.00 in Snow Light Snow
9:53 PM 5.0 °F -4.1 °F 1.0 °F 84% 30.68 in 2.0 mi North 4.6 mph - 0.00 in Snow Light Snow
9:59 PM 5.0 °F -4.1 °F 1.4 °F 85% 30.55 in 3.0 mi North 4.6 mph - 0.00 in Snow Light Snow
10:32 PM 5.0 °F -5.6 °F 1.4 °F 85% 30.56 in 1.8 mi North 5.8 mph - 0.00 in Snow Light Snow
10:53 PM 5.0 °F -6.9 °F 1.0 °F 84% 30.70 in 1.2 mi North 6.9 mph - 0.00 in Snow Light Snow
11:02 PM 3.2 °F -13.9 °F -0.4 °F 85% 30.57 in 2.0 mi North 12.7 mph - 0.00 in Snow Light Snow
11:10 PM 3.2 °F -14.6 °F -0.4 °F 85% 30.58 in 3.0 mi North 13.8 mph - 0.00 in Snow Light Snow
11:53 PM 3.0 °F -14.1 °F -2.9 °F 76% 30.73 in 4.0 mi North 12.7 mph - 0.00 in Snow Light Snow